Weather History for Dubai International Airport, UAE

Change the Weather History Date:

Saturday, March 29, 2014

  Actual Average Record
Temperature  
Mean Temperature 73 °F -  
Max Temperature 79 °F 90 °F - ()
Min Temperature 67 °F 70 °F - ()
Cooling Degree Days 8    
Growing Degree Days 23 (Base 50)    
Moisture  
Dew Point 64 °F    
Average Humidity 70    
Maximum Humidity 88    
Minimum Humidity 44    
Precipitation  
Precipitation 0.00 in 0.01 in - ()
Sea Level Pressure  
Sea Level Pressure 29.95 in    
Wind  
Wind Speed 5 mph ()    
Max Wind Speed 14 mph    
Max Gust Speed -    
Visibility 5.1 miles    
Events      
T = Trace of Precipitation, MM = Missing Value Source: Averaged Metar Reports

Daily Weather History Graph

Daily Weather History Graph

Search for Another Location

Airport:

Trip Planner

Search our weather history database for the weather conditions in past years. The results will help you decide how hot, cold, wet, or windy it might be!

Date:

Astronomy

Mar. 29, 2014 Rise Set
Actual Time 6:13 AM GST 6:33 PM GST
Civil Twilight 5:50 AM GST 6:56 PM GST
Nautical Twilight 5:23 AM GST 7:23 PM GST
Astronomical Twilight 4:56 AM GST 7:50 PM GST
Moon 4:57 AM GST (3/29) 5:17 PM GST (3/29)
Length of Visible Light 13h 05m
Length of Day
12h 20m
Waning Crescent, 3% of the Moon is Illuminated
Mar 29
Waning Crescent
Mar 30
New
Apr 7
First Quarter
Apr 15
Full
Apr 22
Last Quarter

Hourly Weather History & Observations

Time (GST) Temp. Dew Point Humidity Pressure Visibility Wind Dir Wind Speed Gust Speed Precip Events Conditions
12:00 AM 71.6 °F 66.2 °F 83% 29.98 in 6.2 mi North 4.6 mph - N/A   Partly Cloudy
1:00 AM 72 °F 65 °F 74% 29.97 in 6 mi 2.3 mph - -   Partly Cloudy
1:00 AM 71.6 °F 66.2 °F 83% 29.95 in 6.2 mi Variable 2.3 mph - N/A   Scattered Clouds
2:00 AM 71.6 °F 66.2 °F 83% 29.95 in 6.2 mi SSE 3.5 mph - N/A   Scattered Clouds
3:00 AM 69.8 °F 64.4 °F 83% 29.92 in 5.0 mi SE 4.6 mph - N/A   Unknown
4:00 AM 70 °F 64 °F 77% 29.93 in 5 mi SE 5.8 mph - -   Haze
4:00 AM 69.8 °F 64.4 °F 83% 29.92 in 5.0 mi SE 5.8 mph - N/A   Unknown
5:00 AM 69.8 °F 64.4 °F 83% 29.92 in 4.3 mi SSE 4.6 mph - N/A   Scattered Clouds
6:00 AM 68.0 °F 64.4 °F 88% 29.95 in 3.7 mi SSE 5.8 mph - N/A   Scattered Clouds
6:06 AM 68.0 °F 64.4 °F 88% 29.95 in 2.8 mi SSE 4.6 mph - N/A   Haze
7:00 AM 68 °F 64 °F 82% 29.96 in 2 mi 2.3 mph - -   Haze
7:00 AM 68.0 °F 64.4 °F 88% 29.95 in 2.2 mi Variable 2.3 mph - N/A   Haze
10:00 AM 75 °F 62 °F 56% 30.01 in 5 mi South 5.8 mph - -   Widespread Dust
10:00 AM 75.2 °F 62.6 °F 65% 30.01 in 5.0 mi South 5.8 mph - N/A   Unknown
11:00 AM 77.0 °F 59.0 °F 54% 30.01 in 5.6 mi WSW 6.9 mph - N/A   Unknown
12:00 PM 77.0 °F 66.2 °F 69% 29.98 in 5.0 mi NW 10.4 mph - N/A   Partly Cloudy
1:00 PM 78 °F 64 °F 53% 29.97 in 6 mi NW 9.2 mph - -   Widespread Dust
1:00 PM 78.8 °F 64.4 °F 61% 29.95 in 5.6 mi NW 9.2 mph - N/A   Partly Cloudy
2:00 PM 78.8 °F 64.4 °F 61% 29.92 in 5.6 mi NW 12.7 mph - N/A   Partly Cloudy
3:00 PM 77.0 °F 64.4 °F 65% 29.92 in 6.2 mi NW 12.7 mph - N/A   Partly Cloudy
4:00 PM 78 °F 60 °F 44% 29.91 in 6 mi NW 13.8 mph - -   Scattered Clouds
4:00 PM 77.0 °F 60.8 °F 57% 29.89 in 6.2 mi NW 13.8 mph - N/A   Partly Cloudy
5:00 PM 75.2 °F 62.6 °F 65% 29.89 in - WNW 12.7 mph - N/A   Clear
6:00 PM 75.2 °F 62.6 °F 65% 29.92 in - NW 11.5 mph - N/A   Clear
7:00 PM 75 °F 60 °F 49% 29.92 in 6 mi NW 9.2 mph - -   Clear
7:00 PM 75.2 °F 59.0 °F 57% 29.92 in - NW 9.2 mph - N/A   Clear
8:00 PM 73.4 °F 62.6 °F 69% 29.92 in - North 5.8 mph - N/A   Clear
9:00 PM 73.4 °F 62.6 °F 69% 29.95 in - ENE 3.5 mph - N/A   Clear
10:00 PM 74 °F 64 °F 65% 29.97 in 6 mi East 5.8 mph - -   Clear
10:00 PM - - N/A% - - East 5.8 mph - N/A   Clear
11:00 PM 73.4 °F 66.2 °F 78% 29.95 in - ESE 4.6 mph - N/A   Clear